Train No Train Name From To Distance Stops avg_speed (km/hr)
12893 Bhubaneshwar - Balangir Super Fast Bhubaneshwar Balangir 395 14 57
A Train's "Departure" Station, "Arrival" Station and "Distance" may vary. Although we have verified some of this data from enquiry.indianrail.gov.in
Train No Start Date (yyyy-mm-dd) Status Delay Time Source
12893 2017-01-01 Late 29 hours 20 minutes Source
12893 2017-01-02 Late 27 hours 10 minutes Source
12893 2017-01-10 Late 22 hours 52 minutes Source
12893 2017-01-24 Late 30 hours 10 minutes Source
12893 2017-01-25 Late 24 hours 26 minutes Source
12893 2017-02-02 Late 24 hours 23 minutes Source
12893 2017-02-10 Late 28 hours 21 minutes Source
12893 2017-02-12 Late 22 hours 28 minutes Source
12893 2017-02-17 Late 28 hours 45 minutes Source
12893 2017-02-18 Late 24 hours 15 minutes Source
12893 2017-02-19 Late 28 hours 25 minutes Source
12893 2017-02-26 Late 25 hours 05 minutes Source
12893 2017-02-27 Late 18 hours 20 minutes Source
12893 2017-03-06 Late 22 hours 10 minutes Source
12893 2017-03-08 Late 22 hours 55 minutes Source
12893 2017-03-09 Late 16 hours 30 minutes Source
12893 2017-03-11 Late 29 hours 35 minutes Source
12893 2017-03-15 Late 16 hours 25 minutes Source
12893 2017-03-18 Late 22 hours 00 minutes Source
12893 2017-03-20 Late 30 hours 05 minutes Source
12893 2017-03-22 Late 19 hours 05 minutes Source
12893 2017-03-24 Late 24 hours 50 minutes Source
12893 2017-03-25 Late 16 hours 55 minutes Source
12893 2017-03-29 Late 23 hours 45 minutes Source
12893 2017-04-08 Late 25 hours 15 minutes Source
12893 2017-04-09 Late 26 hours 05 minutes Source
12893 2017-04-17 Late 24 hours 35 minutes Source
Page 1 of 1, showing 27 records out of 27 total